Stations météo

réclame
Mon MeteoGroup
Gilze-Rijen, Pays-Bas (6350): Température de l'air & dewpoint: 12.01.2020 20:00:00 - 18.01.2020 20:00:00 (CET)Gilze-Rijen, Pays-Bas (6350): Température de l'air 5cm: 12.01.2020 20:00:00 - 18.01.2020 20:00:00 (CET)Gilze-Rijen, Pays-Bas (6350): Vitesse du vent & gusts: 12.01.2020 20:00:00 - 18.01.2020 20:00:00 (CET)Gilze-Rijen, Pays-Bas (6350): Direction du vent: 12.01.2020 20:00:00 - 18.01.2020 20:00:00 (CET)Gilze-Rijen, Pays-Bas (6350): reduced air pressure: 12.01.2020 20:00:00 - 18.01.2020 20:00:00 (CET)Gilze-Rijen, Pays-Bas (6350): visibility: 12.01.2020 20:00:00 - 18.01.2020 20:00:00 (CET)Gilze-Rijen, Pays-Bas (6350): Quantités de précipitations: 12.01.2020 20:00:00 - 18.01.2020 20:00:00 (CET)
Date & Time tt [°C] td [°C] tt 5cm [°C] ff [km/h] ff [knt] fx [km/h] fx [knt] dd ppp [hPa] vv [km] rr [mm]
18.01.2020 20:00:00 - - - - - - - - - - -
18.01.2020 19:00:00 4,1 1,6 2,9 9 5 14 8 WSW 1028,6 10 0,0
18.01.2020 18:00:00 4,9 1,7 4,0 11 6 18 10 W 1027,8 10 0,0
18.01.2020 17:00:00 5,5 1,6 4,6 13 7 32 18 W 1026,9 10 0,0
18.01.2020 16:00:00 6,9 1,8 6,7 22 12 36 19 W 1026,1 10 0,0
18.01.2020 15:00:00 6,7 1,3 6,5 21 11 32 18 W 1025,5 10 0,0
18.01.2020 14:00:00 7,0 1,6 6,9 26 14 40 21 W 1025,2 10 0,0
18.01.2020 13:00:00 7,6 3,1 7,5 18 10 32 18 W 1024,8 10 0,0
18.01.2020 12:00:00 6,6 3,9 6,8 15 8 25 14 WSW 1024,9 10 0,0
18.01.2020 11:00:00 5,6 3,6 5,6 15 8 25 14 WSW 1024,5 10 0,0
18.01.2020 10:00:00 4,5 3,2 4,1 11 6 25 14 WSW 1023,8 10 0,0
18.01.2020 09:00:00 3,9 2,6 3,6 15 8 22 12 SSW 1022,9 10 0,0
18.01.2020 08:00:00 3,6 2,3 3,0 11 6 18 10 SSW 1022,3 10 0,0
18.01.2020 07:00:00 3,4 2,1 2,5 13 7 18 10 SSW 1021,6 10 0,0
18.01.2020 06:00:00 3,5 2,1 2,4 11 6 18 10 SSW 1021,5 10 0,0
18.01.2020 05:00:00 3,7 2,1 2,8 9 5 18 10 SSW 1021,0 10 0,0
18.01.2020 04:00:00 3,8 1,9 3,0 9 5 22 12 SW 1021,1 10 0,0
18.01.2020 03:00:00 4,2 2,2 3,3 15 8 25 14 SW 1020,7 10 0,0
18.01.2020 02:00:00 4,3 2,6 3,4 15 8 25 14 SSW 1020,4 10 0,0
18.01.2020 01:00:00 4,3 2,3 3,3 13 7 22 12 SW 1020,0 10 0,0
18.01.2020 00:00:00 4,1 1,8 3,1 9 5 18 10 SSW 1019,8 10 0,0
17.01.2020 23:00:00 3,7 1,1 2,0 9 5 14 8 SSW 1019,4 10 0,0
17.01.2020 22:00:00 5,5 1,6 4,4 11 6 29 16 WSW 1018,9 10 0,0
17.01.2020 21:00:00 7,0 2,2 6,2 21 11 43 23 WSW 1018,2 10 0,0
17.01.2020 20:00:00 7,8 3,8 7,4 16 9 36 19 WSW 1017,2 10 0,0
17.01.2020 19:00:00 8,3 3,7 7,8 24 13 47 25 WSW 1016,3 10 0,0
17.01.2020 18:00:00 9,4 4,3 8,6 15 8 40 21 SW 1015,4 10 0,0
17.01.2020 17:00:00 9,8 4,9 8,7 15 8 32 18 SW 1014,2 10 0,0
17.01.2020 16:00:00 10,4 6,4 9,6 11 6 29 16 SW 1013,6 10 0,0
17.01.2020 15:00:00 10,1 8,1 9,8 13 7 25 14 SSW 1013,3 10 0,2
17.01.2020 14:00:00 10,3 7,9 10,1 16 9 29 16 SSW 1013,2 10 0,0
17.01.2020 13:00:00 9,8 8,1 9,6 18 10 29 16 SSW 1013,3 10 0,0
17.01.2020 12:00:00 9,4 7,9 9,1 21 11 32 18 SSW 1013,7 10 0,1
17.01.2020 11:00:00 9,6 7,6 9,4 22 12 32 18 SSW 1013,8 10 0,0
17.01.2020 10:00:00 9,4 6,8 8,9 18 10 29 16 S 1013,6 10 0,0
17.01.2020 09:00:00 9,8 5,7 9,2 21 11 32 18 S 1013,6 10 0,0
17.01.2020 08:00:00 9,9 5,5 9,1 24 13 36 19 S 1013,5 10 0,0
17.01.2020 07:00:00 9,2 5,1 8,1 22 12 40 21 S 1013,7 10 0,0
17.01.2020 06:00:00 8,9 4,9 7,8 18 10 29 16 SSE 1013,6 10 0,0
17.01.2020 05:00:00 9,1 4,9 7,9 21 11 29 16 S 1014,1 10 0,0
17.01.2020 04:00:00 9,6 5,1 8,8 18 10 25 14 SSE 1014,6 10 0,0
17.01.2020 03:00:00 9,0 4,8 8,1 16 9 25 14 SSE 1015,6 10 0,0
17.01.2020 02:00:00 8,9 4,7 7,6 16 9 25 14 S 1016,3 10 0,0
17.01.2020 01:00:00 8,7 5,1 7,5 16 9 29 16 SSE 1016,7 10 0,0
17.01.2020 00:00:00 8,9 5,6 7,6 16 9 32 18 SSE 1017,1 10 0,0
16.01.2020 23:00:00 8,8 5,8 7,7 18 10 32 18 SSE 1017,0 10 0,0
16.01.2020 22:00:00 8,7 5,9 7,5 18 10 25 14 SSE 1017,8 10 0,0
16.01.2020 21:00:00 9,1 6,0 8,0 16 9 32 18 SE 1018,5 10 0,0
16.01.2020 20:00:00 9,1 6,2 7,8 16 9 25 14 SSE 1019,2 10 0,0
16.01.2020 19:00:00 9,0 6,1 7,9 18 10 29 16 SE 1019,9 10 0,0
16.01.2020 18:00:00 9,0 6,1 7,9 13 7 22 12 SE 1020,3 10 0,0
16.01.2020 17:00:00 9,9 6,5 8,4 15 8 29 16 SSE 1020,7 10 0,0
16.01.2020 16:00:00 10,9 6,7 10,1 18 10 32 18 S 1021,1 10 0,0
16.01.2020 15:00:00 11,2 6,9 11,1 21 11 29 16 SSE 1021,6 10 0,0
16.01.2020 14:00:00 10,4 6,8 10,6 21 11 36 19 S 1022,4 10 0,0
16.01.2020 13:00:00 9,4 6,5 9,9 18 10 32 18 S 1023,3 10 0,0
16.01.2020 12:00:00 8,5 6,3 8,8 15 8 29 16 S 1024,1 10 0,0
16.01.2020 11:00:00 6,4 5,2 6,1 8 4 18 10 SSE 1024,8 10 0,0
16.01.2020 10:00:00 3,9 3,6 2,5 9 5 14 8 SSE 1024,6 10 0,0
16.01.2020 09:00:00 2,0 2,0 -1,1 8 4 11 6 SSE 1025,1 7 0,0
16.01.2020 08:00:00 2,1 2,0 -1,0 8 4 11 6 S 1025,3 7 0,0
16.01.2020 07:00:00 2,2 2,2 0,0 9 5 14 8 S 1025,1 6 0,0
16.01.2020 06:00:00 2,4 2,3 0,9 11 6 14 8 S 1024,9 6 0,0
16.01.2020 05:00:00 3,3 3,1 2,0 13 7 18 10 S 1024,4 9 0,0
16.01.2020 04:00:00 4,0 3,6 2,1 11 6 18 10 S 1024,1 10 0,0
16.01.2020 03:00:00 4,3 3,7 3,2 11 6 18 10 SSW 1023,5 10 0,0
16.01.2020 02:00:00 3,6 3,3 2,0 13 7 14 8 S 1022,9 10 0,0
16.01.2020 01:00:00 4,0 3,4 2,2 9 5 14 8 SSW 1022,4 10 0,0
16.01.2020 00:00:00 5,1 4,4 3,6 9 5 14 8 SSW 1021,7 10 0,0
15.01.2020 23:00:00 5,5 4,6 4,2 11 6 18 10 SSW 1020,6 10 0,0
15.01.2020 22:00:00 5,8 5,1 4,8 11 6 18 10 SSW 1019,6 10 0,0
15.01.2020 21:00:00 5,6 5,1 4,4 9 5 14 8 SSW 1018,7 10 0,0
15.01.2020 20:00:00 5,5 5,0 4,2 8 4 14 8 SSW 1017,7 10 0,0
15.01.2020 19:00:00 7,0 6,3 6,3 8 4 11 6 SW 1016,2 10 0,0
15.01.2020 18:00:00 7,5 6,9 7,3 9 5 29 16 SW 1014,4 10 0,3
15.01.2020 17:00:00 7,9 6,6 7,8 31 17 40 21 WNW 1013,0 10 0,9
15.01.2020 16:00:00 10,0 7,7 9,5 22 12 43 23 SSW 1010,7 10 0,5
15.01.2020 15:00:00 10,8 6,7 10,1 28 15 47 25 SSW 1009,5 10 0,3
15.01.2020 14:00:00 11,0 6,4 10,3 22 12 40 21 SSW 1009,4 10 0,2
15.01.2020 13:00:00 11,3 5,7 10,5 34 18 47 25 S 1008,1 10 0,1
15.01.2020 12:00:00 11,6 5,1 11,3 34 18 47 25 S 1008,1 10 0,0
15.01.2020 11:00:00 11,1 4,9 10,7 31 17 47 25 S 1008,0 10 0,0
15.01.2020 10:00:00 10,8 5,0 10,3 29 16 47 25 S 1007,9 10 0,0
15.01.2020 09:00:00 10,6 5,1 9,9 31 17 47 25 S 1007,7 10 0,0
15.01.2020 08:00:00 10,4 5,2 9,3 29 16 47 25 S 1007,1 10 0,0
15.01.2020 07:00:00 10,8 5,3 9,7 29 16 47 25 S 1006,8 10 0,0
15.01.2020 06:00:00 11,2 5,5 9,9 29 16 54 29 S 1006,8 10 0,0
15.01.2020 05:00:00 11,2 5,7 10,2 35 19 54 29 S 1006,4 10 0,0
15.01.2020 04:00:00 11,6 6,7 10,6 35 19 54 29 SSW 1006,6 10 0,0
15.01.2020 03:00:00 11,7 7,4 10,8 29 16 50 27 SSW 1006,8 10 0,0
15.01.2020 02:00:00 11,9 7,9 11,1 29 16 58 31 SSW 1006,3 10 0,0
15.01.2020 01:00:00 11,9 8,4 11,2 34 18 58 31 SSW 1006,2 10 0,0
15.01.2020 00:00:00 11,8 8,6 11,1 34 18 58 31 SSW 1005,9 10 0,2
14.01.2020 23:00:00 11,9 8,5 11,1 37 20 61 33 SSW 1005,4 10 0,2
14.01.2020 22:00:00 11,4 9,1 10,7 34 18 61 33 SSW 1005,3 10 0,5
14.01.2020 21:00:00 12,4 8,3 12,0 35 19 68 37 SSW 1004,5 10 0,0
14.01.2020 20:00:00 12,6 8,6 12,1 37 20 61 33 SSW 1004,3 10 0,0
14.01.2020 19:00:00 12,6 8,5 12,0 34 18 61 33 SSW 1004,0 10 0,0
14.01.2020 18:00:00 12,0 8,1 11,4 35 19 61 33 SSW 1003,9 10 0,0
14.01.2020 17:00:00 11,8 7,3 11,1 35 19 58 31 SSW 1003,5 10 0,0
14.01.2020 16:00:00 11,6 7,3 11,0 31 17 50 27 SSW 1003,6 10 0,0
14.01.2020 15:00:00 11,5 7,6 10,8 29 16 47 25 SSW 1003,7 10 0,0
14.01.2020 14:00:00 10,9 7,5 10,6 31 17 47 25 S 1004,0 10 0,0
14.01.2020 13:00:00 11,0 7,6 10,5 26 14 43 23 SSW 1004,6 10 0,0
14.01.2020 12:00:00 10,7 7,3 10,2 26 14 43 23 SSW 1005,1 10 0,0
14.01.2020 11:00:00 10,0 7,7 9,6 18 10 40 21 SSW 1005,3 10 0,0
14.01.2020 10:00:00 10,2 7,4 9,7 21 11 36 19 SW 1004,7 10 0,0
14.01.2020 09:00:00 9,7 8,0 9,3 22 12 43 23 SW 1004,2 5 0,1
14.01.2020 08:00:00 10,1 7,7 9,4 24 13 43 23 SSW 1003,3 10 0,1
14.01.2020 07:00:00 9,4 7,9 9,1 28 15 50 27 SSW 1002,7 10 0,0
14.01.2020 06:00:00 9,5 8,0 9,0 34 18 50 27 SSW 1002,4 10 1,1
14.01.2020 05:00:00 9,5 8,2 9,2 34 18 50 27 SSW 1002,3 10 1,8
14.01.2020 04:00:00 9,9 8,4 9,5 31 17 50 27 SSW 1002,5 10 0,9
14.01.2020 03:00:00 9,9 8,3 9,4 31 17 47 25 S 1002,9 10 0,4
14.01.2020 02:00:00 10,2 7,9 9,7 34 18 50 27 S 1003,3 10 0,2
14.01.2020 01:00:00 10,8 7,5 10,3 35 19 54 29 S 1004,4 10 0,0
14.01.2020 00:00:00 10,6 7,4 10,2 37 20 50 27 S 1004,8 10 0,0
13.01.2020 23:00:00 10,0 7,4 9,4 31 17 43 23 S 1005,5 10 0,0
13.01.2020 22:00:00 9,4 7,3 9,0 31 17 43 23 S 1006,7 10 0,0
13.01.2020 21:00:00 8,9 7,6 8,4 28 15 40 21 S 1007,9 10 0,0
13.01.2020 20:00:00 8,2 7,2 8,0 26 14 40 21 S 1009,0 10 0,0
13.01.2020 19:00:00 8,4 6,3 8,0 26 14 40 21 S 1009,6 10 0,0
13.01.2020 18:00:00 8,0 6,1 7,5 24 13 36 19 S 1010,9 10 0,0
13.01.2020 17:00:00 8,0 5,0 7,6 26 14 32 18 S 1011,8 10 0,0
13.01.2020 16:00:00 8,6 4,0 8,1 22 12 40 21 S 1012,9 10 0,0
13.01.2020 15:00:00 9,1 4,6 8,9 26 14 40 21 S 1013,6 10 0,0
13.01.2020 14:00:00 9,0 5,6 9,0 24 13 36 19 S 1014,8 10 0,0
13.01.2020 13:00:00 8,4 6,0 8,2 24 13 36 19 S 1015,8 10 0,0
13.01.2020 12:00:00 8,5 5,7 8,8 18 10 32 18 S 1017,5 10 0,0
13.01.2020 11:00:00 7,4 5,4 7,1 16 9 29 16 SSW 1018,5 10 0,0
13.01.2020 10:00:00 6,8 5,0 6,2 18 10 29 16 S 1018,9 10 0,0
13.01.2020 09:00:00 6,7 5,2 6,1 16 9 29 16 SSW 1019,2 10 0,0
13.01.2020 08:00:00 6,7 5,3 6,1 16 9 25 14 SSW 1019,2 10 0,0
13.01.2020 07:00:00 6,2 5,3 5,4 13 7 29 16 SSW 1019,7 8 0,0
13.01.2020 06:00:00 6,3 5,6 5,7 16 9 22 12 SSW 1019,8 9 0,0
13.01.2020 05:00:00 5,9 5,2 5,2 11 6 22 12 SSW 1020,2 10 0,0
13.01.2020 04:00:00 5,9 5,1 5,2 13 7 18 10 SSW 1021,1 10 0,0
13.01.2020 03:00:00 6,7 5,8 6,2 13 7 25 14 SSW 1021,4 10 0,0
13.01.2020 02:00:00 7,0 5,8 6,3 13 7 22 12 SSW 1021,5 10 0,0
13.01.2020 01:00:00 7,1 5,9 6,3 11 6 22 12 SSW 1022,1 10 0,0
13.01.2020 00:00:00 7,0 5,8 6,2 9 5 18 10 SSW 1022,1 10 0,0
12.01.2020 23:00:00 8,1 6,1 7,2 11 6 25 14 SW 1021,9 10 0,0
12.01.2020 22:00:00 8,9 6,7 8,3 11 6 22 12 SW 1021,7 10 0,0
12.01.2020 21:00:00 9,0 7,1 8,4 15 8 25 14 WSW 1021,4 10 0,0
12.01.2020 20:00:00 10,0 6,8 9,3 15 8 25 14 WSW 1021,0 10 0,0

tt = Température de l'air
td = dewpoint
tt 5cm = Température de l'air 5cm
ff = Vitesse du vent
fx = gusts
dd = Direction du vent
ppp = reduced air pressure
vv = visibility
rr = Quantités de précipitations

stations d'obs. à proximité